Location: ???????
(55.2903°N, 39.1554°E)
Time: 23:00:31
(UTC+00:00)

NOSS 3-1 (C) - Pass Details

Date: 14 April 2024
Orbit: 652 x 1553 km, 63.4° (Epoch: 15 May)

Event Time Altitude Azimuth Distance (km) Brightness Sun altitude
Rises 23:59:48 0° 305° (NW) 3,586 6.4 -17.5°
Reaches altitude 10° 00:02:09 10° 308° (NW) 2,756 5.8 -17.3°
Maximum altitude 00:08:44 68° 31° (NNE) 1,245 4.2 -16.6°
Drops below altitude 10° 00:16:58 10° 115° (ESE) 3,412 6.6 -15.8°
Sets 00:20:09 0° 118° (ESE) 4,492 7.2 -15.5°
